Location: Unspecified
(0.0000°N, 0.0000°E)
Time: 11:35:59
(UTC+00:00)

Transit 2A Rocket - Pass Details

Date: 22 November 2019
Orbit: 594 x 909 km, 66.7° (Epoch: 07 December)

Event Time Altitude Azimuth Distance (km) Brightness Sun altitude
Rises 06:01:41 0° 21° (NNE) 2,992 8.1 3.7°
Reaches altitude 10° 06:06:13 10° 62° (ENE) 2,174 8.1 4.7°
Maximum altitude 06:07:04 10° 72° (ENE) 2,164 8.3 4.9°
Drops below altitude 10° 06:07:56 10° 82° (E) 2,211 8.7 5.1°
Sets 06:12:47 0° 121° (ESE) 3,244 10.4 6.3°
